Location: Auckland
(36.8670°S, 174.7670°E)
Time: 12:23:52
(UTC+12:00)

NOSS 2-1 (E) - Pass Details

Date: 24 April 2019
Orbit: 471 x 1733 km, 63.3° (Epoch: 14 May)

Event Time Altitude Azimuth Distance (km) Brightness Sun altitude
Rises 20:24:15 0° 228° (SW) 4,927 8.9 -32.5°
Reaches altitude 10° 20:32:10 10° 190° (S) 3,656 7.7 -34.1°
Maximum altitude 20:33:25 10° 182° (S) 3,572 7.5 -34.4°
Drops below altitude 10° 20:34:39 10° 174° (S) 3,534 7.4 -34.6°
Enters shadow 20:36:40 - 161° (SSE) 3,572 7.3 -35.0°
